Location: Nitra
(0.0000°N, 18.0833°E)
Time: 09:57:45
(UTC+01:00)

Cosmos 2297 Rocket - Pass Details

Date: 25 September 2022
Orbit: 839 x 844 km, 71.0° (Epoch: 28 November)

Event Time Altitude Azimuth Distance (km) Brightness Sun altitude
Rises 19:25:48 0° 21° (NNE) 3,385 5.1 -11.6°
Reaches altitude 10° 19:29:50 10° 50° (NE) 2,454 4.2 -12.6°
Enters shadow 19:30:18 11° 54° (NE) 2,390 4.1 -12.8°
